Time,TemperatureF,DewpointF,PressureIn,WindDirection,WindDirectionDegrees,WindSpeedMPH,WindSpeedGustMPH,Humidity,HourlyPrecipIn,Conditions,Clouds,dailyrainin,SoftwareType,DateUTC
2013-01-29 00:01:00,50.0,50.0,29.86,SSE,162,6.0,11.0,99,0.02,,,0.12,,2013-01-29 06:01:00,
2013-01-29 00:11:00,50.0,50.0,29.86,SSE,162,6.0,11.0,99,0.02,,,0.12,,2013-01-29 06:11:00,
2013-01-29 00:21:00,50.0,50.0,29.86,SSE,164,7.0,11.0,99,0.00,,,0.12,,2013-01-29 06:21:00,
2013-01-29 00:32:00,50.0,50.0,29.85,South,173,6.0,10.0,99,0.00,,,0.12,,2013-01-29 06:32:00,
2013-01-29 00:41:00,50.0,50.0,29.85,South,173,6.0,10.0,99,0.00,,,0.12,,2013-01-29 06:41:00,
2013-01-29 00:52:00,51.0,51.0,29.85,SSE,162,6.0,11.0,99,0.01,,,0.13,,2013-01-29 06:52:00,
2013-01-29 01:01:00,52.0,52.0,29.84,South,170,8.0,13.0,99,0.01,,,0.13,,2013-01-29 07:01:00,
2013-01-29 01:11:00,52.0,52.0,29.84,South,170,8.0,13.0,99,0.01,,,0.13,,2013-01-29 07:11:00,
2013-01-29 01:21:00,53.0,53.0,29.82,SSE,160,8.0,15.0,99,0.01,,,0.13,,2013-01-29 07:21:00,
2013-01-29 01:31:00,53.0,53.0,29.82,SSW,201,9.0,17.0,99,0.01,,,0.13,,2013-01-29 07:31:00,
2013-01-29 01:41:00,53.0,53.0,29.82,SSW,201,9.0,17.0,99,0.01,,,0.13,,2013-01-29 07:41:00,
2013-01-29 01:52:00,54.0,54.0,29.81,SW,215,11.0,17.0,99,0.00,,,0.13,,2013-01-29 07:52:00,
2013-01-29 02:02:00,55.0,55.0,29.80,South,183,10.0,16.0,99,0.00,,,0.13,,2013-01-29 08:02:00,
2013-01-29 02:11:00,55.0,55.0,29.80,South,183,10.0,16.0,99,0.00,,,0.13,,2013-01-29 08:11:00,
2013-01-29 02:21:00,56.0,56.0,29.80,South,191,10.0,17.0,99,0.01,,,0.14,,2013-01-29 08:21:00,
2013-01-29 02:31:00,56.0,56.0,29.79,SW,225,11.0,17.0,99,0.01,,,0.14,,2013-01-29 08:31:00,
2013-01-29 02:41:00,56.0,56.0,29.79,SW,225,11.0,17.0,99,0.01,,,0.14,,2013-01-29 08:41:00,
2013-01-29 02:52:00,57.0,57.0,29.78,SW,217,11.0,22.0,99,0.01,,,0.14,,2013-01-29 08:52:00,
2013-01-29 03:01:00,57.0,57.0,29.78,SSW,208,13.0,24.0,99,0.02,,,0.15,,2013-01-29 09:01:00,
2013-01-29 03:11:00,57.0,57.0,29.78,SSW,208,13.0,24.0,99,0.02,,,0.15,,2013-01-29 09:11:00,
2013-01-29 03:21:00,57.0,57.0,29.78,SSW,201,16.0,24.0,99,0.01,,,0.15,,2013-01-29 09:21:00,
2013-01-29 03:31:00,57.0,57.0,29.77,SSW,197,12.0,25.0,99,0.01,,,0.15,,2013-01-29 09:31:00,
2013-01-29 03:42:00,57.0,57.0,29.77,SSW,197,12.0,25.0,99,0.01,,,0.15,,2013-01-29 09:42:00,
2013-01-29 03:51:00,57.0,57.0,29.77,South,190,12.0,21.0,99,0.01,,,0.15,,2013-01-29 09:51:00,
2013-01-29 04:01:00,57.0,57.0,29.76,South,186,13.0,27.0,99,0.00,,,0.15,,2013-01-29 10:01:00,
2013-01-29 04:11:00,57.0,57.0,29.76,South,186,13.0,27.0,99,0.00,,,0.15,,2013-01-29 10:11:00,
2013-01-29 04:21:00,57.0,56.0,29.77,SSW,212,14.0,21.0,98,0.00,,,0.15,,2013-01-29 10:21:00,
2013-01-29 04:32:00,57.0,56.0,29.77,SSW,212,14.0,21.0,98,0.00,,,0.15,,2013-01-29 10:32:00,
2013-01-29 04:41:00,57.0,56.0,29.77,SSW,212,14.0,21.0,98,0.00,,,0.15,,2013-01-29 10:41:00,
2013-01-29 04:51:00,57.0,56.0,29.77,SSW,212,14.0,21.0,98,0.00,,,0.15,,2013-01-29 10:51:00,
2013-01-29 06:53:00,58.0,57.0,29.75,SSW,200,13.0,23.0,95,0.00,,,0.09,,2013-01-29 12:53:00,
2013-01-29 07:02:00,58.0,57.0,29.73,SSW,193,12.0,19.0,95,0.00,,,0.09,,2013-01-29 13:02:00,
2013-01-29 07:12:00,58.0,57.0,29.73,SSW,193,12.0,19.0,95,0.00,,,0.09,,2013-01-29 13:12:00,
2013-01-29 07:22:00,57.0,56.0,29.74,South,176,12.0,19.0,95,0.00,,,0.09,,2013-01-29 13:22:00,
2013-01-29 07:32:00,57.0,56.0,29.73,SSE,160,11.0,20.0,96,0.00,,,0.09,,2013-01-29 13:32:00,
2013-01-29 07:42:00,57.0,56.0,29.73,SSE,160,11.0,20.0,96,0.00,,,0.09,,2013-01-29 13:42:00,
2013-01-29 07:52:00,57.0,56.0,29.73,South,191,14.0,21.0,96,0.00,,,0.09,,2013-01-29 13:52:00,
2013-01-29 08:02:00,57.0,56.0,29.73,South,191,11.0,20.0,96,0.00,,,0.09,,2013-01-29 14:02:00,
2013-01-29 08:12:00,57.0,56.0,29.73,South,181,12.0,21.0,96,0.00,,,0.09,,2013-01-29 14:12:00,
2013-01-29 08:22:00,57.0,56.0,29.73,South,181,12.0,21.0,96,0.00,,,0.09,,2013-01-29 14:22:00,
2013-01-29 08:33:00,57.0,56.0,29.73,South,169,11.0,20.0,96,0.00,,,0.09,,2013-01-29 14:33:00,
2013-01-29 08:43:00,57.0,56.0,29.73,South,169,11.0,20.0,96,0.00,,,0.09,,2013-01-29 14:43:00,
2013-01-29 08:53:00,58.0,57.0,29.73,SSW,210,11.0,20.0,96,0.00,,,0.09,,2013-01-29 14:53:00,
2013-01-29 09:02:00,58.0,57.0,29.73,SSW,195,10.0,20.0,95,0.00,,,0.09,,2013-01-29 15:02:00,
2013-01-29 09:12:00,58.0,57.0,29.73,SSW,195,10.0,20.0,95,0.00,,,0.09,,2013-01-29 15:12:00,
2013-01-29 09:22:00,58.0,57.0,29.73,SSW,198,11.0,20.0,95,0.00,,,0.09,,2013-01-29 15:22:00,
2013-01-29 09:33:00,58.0,57.0,29.73,SSW,201,15.0,23.0,96,0.00,,,0.09,,2013-01-29 15:33:00,
2013-01-29 09:42:00,58.0,57.0,29.73,SSW,201,15.0,23.0,96,0.00,,,0.09,,2013-01-29 15:42:00,
2013-01-29 09:53:00,58.0,57.0,29.73,SW,224,11.0,21.0,95,0.00,,,0.09,,2013-01-29 15:53:00,
2013-01-29 10:02:00,58.0,57.0,29.72,SSW,193,12.0,19.0,95,0.00,,,0.09,,2013-01-29 16:02:00,
2013-01-29 10:12:00,58.0,57.0,29.72,SSW,193,12.0,19.0,95,0.00,,,0.09,,2013-01-29 16:12:00,
2013-01-29 10:22:00,58.0,57.0,29.72,South,191,10.0,18.0,95,0.00,,,0.09,,2013-01-29 16:22:00,
2013-01-29 10:32:00,58.0,57.0,29.72,South,190,10.0,18.0,95,0.00,,,0.09,,2013-01-29 16:32:00,
2013-01-29 10:42:00,58.0,57.0,29.72,South,190,10.0,18.0,95,0.00,,,0.09,,2013-01-29 16:42:00,
2013-01-29 10:53:00,59.0,58.0,29.72,SSW,211,12.0,21.0,95,0.00,,,0.09,,2013-01-29 16:53:00,
2013-01-29 11:03:00,59.0,58.0,29.71,SSW,196,14.0,21.0,95,0.00,,,0.09,,2013-01-29 17:03:00,
2013-01-29 11:12:00,59.0,58.0,29.71,SSW,196,14.0,21.0,95,0.00,,,0.09,,2013-01-29 17:12:00,
2013-01-29 11:22:00,59.0,58.0,29.71,South,169,11.0,21.0,95,0.00,,,0.09,,2013-01-29 17:22:00,
2013-01-29 11:32:00,59.0,57.0,29.72,SSE,158,13.0,23.0,94,0.00,,,0.09,,2013-01-29 17:32:00,
2013-01-29 11:42:00,59.0,57.0,29.72,SSE,158,13.0,23.0,94,0.00,,,0.09,,2013-01-29 17:42:00,
2013-01-29 11:52:00,59.0,57.0,29.71,South,183,13.0,18.0,94,0.00,,,0.09,,2013-01-29 17:52:00,
2013-01-29 12:04:00,59.0,57.0,29.70,SSW,210,11.0,20.0,94,0.00,,,0.09,,2013-01-29 18:04:00,
2013-01-29 12:12:00,59.0,57.0,29.70,SSW,210,11.0,20.0,94,0.00,,,0.09,,2013-01-29 18:12:00,
2013-01-29 12:22:00,60.0,58.0,29.69,South,187,9.0,22.0,94,0.00,,,0.09,,2013-01-29 18:22:00,
2013-01-29 12:33:00,60.0,58.0,29.68,South,174,13.0,21.0,94,0.00,,,0.09,,2013-01-29 18:33:00,
2013-01-29 12:42:00,60.0,58.0,29.68,South,174,13.0,21.0,94,0.00,,,0.09,,2013-01-29 18:42:00,
2013-01-29 12:52:00,60.0,58.0,29.68,SW,224,12.0,23.0,94,0.00,,,0.09,,2013-01-29 18:52:00,
2013-01-29 13:02:00,60.0,58.0,29.66,SW,215,11.0,17.0,94,0.00,,,0.09,,2013-01-29 19:02:00,
2013-01-29 13:12:00,60.0,58.0,29.66,SW,215,11.0,17.0,94,0.00,,,0.09,,2013-01-29 19:12:00,
2013-01-29 13:22:00,60.0,58.0,29.65,SE,144,9.0,18.0,93,0.00,,,0.09,,2013-01-29 19:22:00,
2013-01-29 13:32:00,60.0,58.0,29.63,SSW,211,12.0,19.0,93,0.00,,,0.09,,2013-01-29 19:32:00,
2013-01-29 13:42:00,60.0,58.0,29.63,SSW,211,12.0,19.0,93,0.00,,,0.09,,2013-01-29 19:42:00,
2013-01-29 13:52:00,61.0,59.0,29.62,SSE,155,11.0,18.0,93,0.00,,,0.09,,2013-01-29 19:52:00,
2013-01-29 14:02:00,60.0,58.0,29.61,SSW,204,11.0,16.0,93,0.00,,,0.09,,2013-01-29 20:02:00,
2013-01-29 14:12:00,60.0,58.0,29.61,SSW,204,11.0,16.0,93,0.00,,,0.09,,2013-01-29 20:12:00,
2013-01-29 14:22:00,60.0,58.0,29.60,SSE,165,13.0,21.0,93,0.00,,,0.09,,2013-01-29 20:22:00,
2013-01-29 14:33:00,60.0,58.0,29.60,SSW,211,12.0,18.0,93,0.00,,,0.09,,2013-01-29 20:33:00,
2013-01-29 14:42:00,60.0,58.0,29.60,SSW,211,12.0,18.0,93,0.00,,,0.09,,2013-01-29 20:42:00,
2013-01-29 14:53:00,60.0,58.0,29.59,South,187,11.0,19.0,93,0.00,,,0.09,,2013-01-29 20:53:00,
2013-01-29 15:02:00,60.0,58.0,29.58,SSW,195,10.0,18.0,93,0.00,,,0.09,,2013-01-29 21:02:00,
2013-01-29 15:12:00,60.0,58.0,29.58,SSW,195,10.0,18.0,93,0.00,,,0.09,,2013-01-29 21:12:00,
2013-01-29 15:22:00,60.0,58.0,29.58,South,181,13.0,20.0,93,0.00,,,0.09,,2013-01-29 21:22:00,
2013-01-29 15:33:00,60.0,58.0,29.58,SSE,165,11.0,17.0,93,0.00,,,0.09,,2013-01-29 21:33:00,
2013-01-29 15:42:00,60.0,58.0,29.58,SSE,165,11.0,17.0,93,0.00,,,0.09,,2013-01-29 21:42:00,
2013-01-29 15:53:00,60.0,58.0,29.58,SSE,148,13.0,20.0,93,0.00,,,0.09,,2013-01-29 21:53:00,
2013-01-29 16:02:00,60.0,58.0,29.58,South,188,12.0,18.0,93,0.00,,,0.09,,2013-01-29 22:02:00,
2013-01-29 16:12:00,60.0,58.0,29.58,South,188,12.0,18.0,93,0.00,,,0.09,,2013-01-29 22:12:00,
2013-01-29 16:22:00,60.0,58.0,29.56,SSW,200,11.0,23.0,93,0.00,,,0.09,,2013-01-29 22:22:00,
2013-01-29 16:33:00,59.0,57.0,29.55,South,173,14.0,20.0,94,0.00,,,0.09,,2013-01-29 22:33:00,
2013-01-29 16:42:00,59.0,57.0,29.55,South,173,14.0,20.0,94,0.00,,,0.09,,2013-01-29 22:42:00,
2013-01-29 16:53:00,59.0,57.0,29.55,South,169,15.0,21.0,94,0.00,,,0.09,,2013-01-29 22:53:00,
2013-01-29 17:02:00,59.0,57.0,29.53,SSE,165,12.0,22.0,94,0.00,,,0.09,,2013-01-29 23:02:00,
2013-01-29 17:12:00,59.0,57.0,29.53,SSE,165,12.0,22.0,94,0.00,,,0.09,,2013-01-29 23:12:00,
2013-01-29 17:22:00,59.0,57.0,29.53,SSE,166,14.0,24.0,94,0.00,,,0.09,,2013-01-29 23:22:00,
2013-01-29 17:32:00,59.0,57.0,29.51,SSE,156,14.0,24.0,94,0.00,,,0.09,,2013-01-29 23:32:00,
2013-01-29 17:42:00,59.0,57.0,29.51,SSE,156,14.0,24.0,94,0.00,,,0.09,,2013-01-29 23:42:00,
2013-01-29 17:53:00,59.0,57.0,29.51,South,169,16.0,23.0,94,0.00,,,0.09,,2013-01-29 23:53:00,
2013-01-29 18:02:00,59.0,58.0,29.49,SSE,155,14.0,25.0,95,0.02,,,0.11,,2013-01-30 00:02:00,
2013-01-29 18:12:00,59.0,58.0,29.49,SSE,155,14.0,25.0,95,0.02,,,0.11,,2013-01-30 00:12:00,
2013-01-29 18:22:00,59.0,58.0,29.50,SSW,200,10.0,23.0,95,0.02,,,0.11,,2013-01-30 00:22:00,
2013-01-29 18:32:00,58.0,57.0,29.51,WNW,299,7.0,12.0,95,0.16,,,0.25,,2013-01-30 00:32:00,
2013-01-29 18:42:00,58.0,57.0,29.51,WNW,299,7.0,12.0,95,0.16,,,0.25,,2013-01-30 00:42:00,
2013-01-29 18:53:00,56.0,55.0,29.52,WNW,292,5.0,12.0,96,0.36,,,0.45,,2013-01-30 00:53:00,
2013-01-29 19:02:00,56.0,55.0,29.52,WSW,237,3.0,5.0,97,0.43,,,0.54,,2013-01-30 01:02:00,
2013-01-29 19:12:00,56.0,55.0,29.52,WSW,237,3.0,5.0,97,0.43,,,0.54,,2013-01-30 01:12:00,
2013-01-29 19:22:00,55.0,54.0,29.55,WSW,255,4.0,6.0,97,0.52,,,0.63,,2013-01-30 01:22:00,
2013-01-29 19:32:00,55.0,54.0,29.54,WNW,288,2.0,4.0,98,0.45,,,0.70,,2013-01-30 01:32:00,
2013-01-29 19:42:00,55.0,54.0,29.54,WNW,288,2.0,4.0,98,0.45,,,0.70,,2013-01-30 01:42:00,
2013-01-29 19:52:00,55.0,54.0,29.53,WNW,290,3.0,6.0,97,0.26,,,0.72,,2013-01-30 01:52:00,
2013-01-29 20:02:00,55.0,54.0,29.52,WNW,290,3.0,5.0,97,0.21,,,0.75,,2013-01-30 02:02:00,
2013-01-29 20:12:00,54.0,53.0,29.52,WNW,283,1.0,4.0,98,0.13,,,0.77,,2013-01-30 02:12:00,
2013-01-29 20:22:00,54.0,53.0,29.52,WNW,283,1.0,4.0,98,0.13,,,0.77,,2013-01-30 02:22:00,
2013-01-29 20:33:00,54.0,53.0,29.52,West,281,1.0,1.0,98,0.07,,,0.77,,2013-01-30 02:33:00,
2013-01-29 20:42:00,54.0,53.0,29.52,West,281,1.0,1.0,98,0.07,,,0.77,,2013-01-30 02:42:00,
2013-01-29 20:53:00,54.0,53.0,29.51,SSE,163,0.0,4.0,98,0.04,,,0.77,,2013-01-30 02:53:00,
2013-01-29 21:02:00,53.0,52.0,29.52,SW,217,1.0,3.0,98,0.03,,,0.78,,2013-01-30 03:02:00,
2013-01-29 21:11:00,53.0,52.0,29.52,SW,217,1.0,3.0,98,0.03,,,0.78,,2013-01-30 03:11:00,
2013-01-29 21:22:00,54.0,53.0,29.50,WSW,243,0.0,2.0,98,0.02,,,0.79,,2013-01-30 03:22:00,
2013-01-29 21:32:00,53.0,52.0,29.48,WSW,239,0.0,1.0,98,0.04,,,0.81,,2013-01-30 03:32:00,
2013-01-29 21:42:00,53.0,52.0,29.48,WSW,239,0.0,1.0,98,0.04,,,0.81,,2013-01-30 03:42:00,
2013-01-29 21:52:00,53.0,52.0,29.48,SSE,158,1.0,3.0,98,0.05,,,0.82,,2013-01-30 03:52:00,
2013-01-29 22:02:00,53.0,52.0,29.47,NNW,345,2.0,4.0,98,0.05,,,0.83,,2013-01-30 04:02:00,
2013-01-29 22:11:00,53.0,52.0,29.47,NNW,345,2.0,4.0,98,0.05,,,0.83,,2013-01-30 04:11:00,
2013-01-29 22:22:00,53.0,52.0,29.46,NNW,344,0.0,0.0,98,0.05,,,0.84,,2013-01-30 04:22:00,
2013-01-29 22:32:00,52.0,51.0,29.46,WSW,248,1.0,2.0,98,0.06,,,0.86,,2013-01-30 04:32:00,
2013-01-29 22:41:00,52.0,51.0,29.46,WSW,248,1.0,2.0,98,0.06,,,0.86,,2013-01-30 04:41:00,
2013-01-29 22:52:00,52.0,51.0,29.47,WNW,290,1.0,4.0,98,0.08,,,0.89,,2013-01-30 04:52:00,
2013-01-29 23:03:00,53.0,53.0,29.49,West,267,2.0,6.0,99,0.11,,,0.93,,2013-01-30 05:03:00,
2013-01-29 23:12:00,53.0,52.0,29.47,SW,232,1.0,5.0,98,0.13,,,0.92,,2013-01-30 05:12:00,
2013-01-29 23:22:00,53.0,52.0,29.47,SW,232,1.0,5.0,98,0.13,,,0.92,,2013-01-30 05:22:00,
2013-01-29 23:32:00,52.0,51.0,29.47,SSW,195,2.0,3.0,98,0.14,,,0.95,,2013-01-30 05:32:00,
2013-01-29 23:42:00,52.0,51.0,29.47,SSW,195,2.0,3.0,98,0.14,,,0.95,,2013-01-30 05:42:00,
2013-01-29 23:52:00,52.0,51.0,29.45,SSW,211,1.0,2.0,98,0.13,,,0.98,,2013-01-30 05:52:00,